Location: Street
(51.1247°N, 2.7429°W)
Time: 15:25:45
(UTC+00:00)

YUBILEINY - Visible Passes

Search period start: 20 March 2023 00:00
Search period end: 30 March 2023 01:00
Orbit: 1477 x 1509 km, 82.5° (Epoch: 20 March)

Date Brightness Start Highest point End Pass type
(mag) Time Alt. Az. Time Alt. Az. Time Alt. Az.
20 Mar ? 01:17:07 10° NNW 01:24:12 49° WNW 01:24:12 49° WNW visible
20 Mar ? 03:17:13 10° NW 03:20:06 12° WNW 03:20:06 12° WNW visible
20 Mar ? 22:30:45 10° N 22:38:11 29° ENE 22:39:08 29° ENE visible
21 Mar ? 00:27:17 10° NNW 00:35:02 72° NNW 00:35:02 72° NNW visible
21 Mar ? 02:25:25 10° NNW 02:30:57 22° WNW 02:30:57 22° WNW visible
21 Mar ? 21:41:38 10° N 21:47:26 19° NE 21:49:59 17° ENE visible
21 Mar ? 23:37:39 10° N 23:45:53 62° ENE 23:45:53 62° ENE visible
22 Mar ? 01:35:00 10° NNW 01:41:48 36° WNW 01:41:48 36° WNW visible
22 Mar ? 20:53:14 10° NNE 20:56:16 12° NE 20:59:17 10° ENE visible
22 Mar ? 22:48:09 10° N 22:56:19 40° ENE 22:56:45 40° ENE visible
23 Mar ? 00:45:00 10° NNW 00:52:39 58° WNW 00:52:39 58° WNW visible
23 Mar ? 02:44:12 10° NW 02:48:28 15° WNW 02:48:34 15° WNW visible
23 Mar ? 21:58:50 10° N 22:05:52 26° NE 22:07:37 24° ENE visible
23 Mar ? 23:55:14 10° N 00:03:32 80° NNE 00:03:32 80° NNE visible
24 Mar ? 01:53:05 10° NNW 01:59:26 26° WNW 01:59:26 26° WNW visible
24 Mar ? 21:09:49 10° N 21:15:00 16° NE 21:18:30 13° ENE visible
24 Mar ? 23:05:38 10° N 23:14:16 55° ENE 23:14:24 55° ENE visible
25 Mar ? 01:02:49 10° NNW 01:10:19 43° WNW 01:10:19 43° WNW visible
25 Mar ? 20:22:17 10° NNE 20:23:41 10° NNE 20:25:06 10° NE visible
25 Mar ? 22:16:11 10° N 22:24:05 35° ENE 22:25:17 34° ENE visible
26 Mar ? 00:12:54 10° NNW 00:21:12 69° WNW 00:21:12 69° WNW visible
26 Mar ? 03:11:33 10° NW 03:16:46 18° WNW 03:17:06 18° WNW visible
26 Mar ? 22:26:56 10° N 22:33:31 22° NE 22:36:11 20° ENE visible
27 Mar ? 00:23:12 10° N 00:32:03 76° ENE 00:32:05 76° E visible
27 Mar ? 02:20:48 10° NNW 02:28:00 30° W 02:28:00 30° W visible
27 Mar ? 21:38:06 10° N 21:42:31 14° NE 21:46:56 10° ENE visible
27 Mar ? 23:33:39 10° N 23:42:08 48° ENE 23:42:59 47° E visible
28 Mar ? 01:30:41 10° NNW 01:38:54 50° W 01:38:54 50° W visible
28 Mar ? 03:31:19 10° NW 03:33:31 11° WNW 03:34:48 11° WNW visible
28 Mar ? 22:44:14 10° N 22:51:50 31° ENE 22:53:54 28° E visible
29 Mar ? 00:40:50 10° NNW 00:49:40 80° W 00:49:48 80° WSW visible
29 Mar ? 02:39:05 10° NNW 02:45:03 21° WNW 02:45:43 21° W visible
29 Mar ? 21:55:04 10° N 22:01:08 20° NE 22:04:49 15° ENE visible
29 Mar ? 23:51:11 10° N 23:59:58 67° ENE 00:00:44 64° E visible
